Location: Hylvaty SDH
(49.9612°N, 16.4057°E)
Time: 12:41:39
(UTC+01:00)

Tiros 1 - Pass Details

Date: 04 October 2020
Orbit: 630 x 663 km, 48.4° (Epoch: 28 October)

Event Time Altitude Azimuth Distance (km) Brightness Sun altitude
Rises 19:33:47 0° 280° (W) 2,977 12.7 -11.8°
Reaches altitude 10° 19:36:43 10° 262° (W) 2,068 11.1 -12.3°
Maximum altitude 19:39:59 19° 219° (SW) 1,578 9.5 -12.8°
Drops below altitude 10° 19:43:15 10° 175° (S) 2,070 9.6 -13.3°
Enters shadow 19:46:01 - 158° (SSE) 2,920 10.2 -13.7°
Sets 19:46:12 0° 158° (SSE) 2,981 - -13.8°
